Location: Carrizo Plain National Monument
(35.0903°N, 119.7316°W)
Time: 03:25:49
(UTC-08:00)

Hubble Space Telescope - Visible Passes

Search period start: 20 January 2020 00:00
Search period end: 30 January 2020 00:00
Orbit: 536 x 540 km, 28.5° (Epoch: 19 January)

Date Brightness Start Highest point End Pass type
(mag) Time Alt. Az. Time Alt. Az. Time Alt. Az.
27 Jan 3.8 06:05:30 10° SSE 06:06:00 10° SSE 06:06:32 10° SSE visible
28 Jan 3.5 05:53:26 10° S 05:55:17 13° SSE 05:57:08 10° SE visible
29 Jan 3.3 05:42:06 10° SSW 05:44:33 15° SSE 05:47:00 10° SE visible
